Location: Stanford
(52.2833°N, 2.4333°W)
Time: 02:30:56
(UTC+00:00)

CZ-2C R/B - Pass Details

Date: 22 January 2021
Orbit: 785 x 870 km, 98.2° (Epoch: 24 February)

Event Time Altitude Azimuth Distance (km) Brightness Sun altitude
Exits shadow 20:30:27 38° 249° (WSW) 1,289 3.9 -34.9°
Drops below altitude 10° 20:34:13 10° 221° (SW) 2,507 5.4 -35.4°
Sets 20:36:40 0° 216° (SW) 3,445 6.1 -35.8°
